Time,TemperatureF,DewpointF,PressureIn,WindDirection,WindDirectionDegrees,WindSpeedMPH,WindSpeedGustMPH,Humidity,HourlyPrecipIn,Conditions,Clouds,dailyrainin,SoftwareType,DateUTC
2013-04-24 00:02:00,65.0,56.0,30.03,South,170,0.0,0.0,72,0.00,,,0.00,,2013-04-24 05:02:00,
2013-04-24 00:12:00,65.0,56.0,30.03,South,170,0.0,0.0,72,0.00,,,0.00,,2013-04-24 05:12:00,
2013-04-24 00:22:00,65.0,55.0,30.03,ESE,108,2.0,0.0,71,0.00,,,0.00,,2013-04-24 05:22:00,
2013-04-24 00:32:00,65.0,55.0,30.03,SE,142,6.0,6.0,71,0.00,,,0.00,,2013-04-24 05:32:00,
2013-04-24 00:42:00,65.0,55.0,30.03,SE,142,6.0,6.0,71,0.00,,,0.00,,2013-04-24 05:42:00,
2013-04-24 00:52:00,65.0,55.0,30.02,SE,141,6.0,7.0,69,0.00,,,0.00,,2013-04-24 05:52:00,
2013-04-24 01:02:00,66.0,56.0,30.01,SSE,152,1.0,9.0,69,0.00,,,0.00,,2013-04-24 06:02:00,
2013-04-24 01:12:00,66.0,56.0,30.01,SSE,152,1.0,9.0,69,0.00,,,0.00,,2013-04-24 06:12:00,
2013-04-24 01:21:00,66.0,56.0,30.01,SE,138,4.0,7.0,69,0.00,,,0.00,,2013-04-24 06:21:00,
2013-04-24 01:32:00,66.0,56.0,30.01,East,101,3.0,3.0,69,0.00,,,0.00,,2013-04-24 06:32:00,
2013-04-24 01:42:00,66.0,56.0,30.01,East,101,3.0,3.0,69,0.00,,,0.00,,2013-04-24 06:42:00,
2013-04-24 01:52:00,66.0,56.0,30.00,South,173,5.0,5.0,69,0.00,,,0.00,,2013-04-24 06:52:00,
2013-04-24 02:02:00,66.0,56.0,29.99,ESE,107,1.0,3.0,69,0.00,,,0.00,,2013-04-24 07:02:00,
2013-04-24 02:11:00,66.0,56.0,29.99,ESE,107,1.0,3.0,69,0.00,,,0.00,,2013-04-24 07:11:00,
2013-04-24 02:22:00,65.0,55.0,30.00,SSE,148,5.0,5.0,70,0.00,,,0.00,,2013-04-24 07:22:00,
2013-04-24 02:32:00,65.0,55.0,29.99,SW,219,4.0,0.0,70,0.00,,,0.00,,2013-04-24 07:32:00,
2013-04-24 02:41:00,65.0,55.0,29.99,SW,219,4.0,0.0,70,0.00,,,0.00,,2013-04-24 07:41:00,
2013-04-24 02:52:00,65.0,55.0,29.98,SE,136,2.0,5.0,71,0.00,,,0.00,,2013-04-24 07:52:00,
2013-04-24 03:01:00,64.0,55.0,29.99,SSE,160,0.0,0.0,72,0.00,,,0.00,,2013-04-24 08:01:00,
2013-04-24 03:12:00,64.0,55.0,29.99,SSE,160,0.0,0.0,72,0.00,,,0.00,,2013-04-24 08:12:00,
2013-04-24 03:21:00,63.0,55.0,29.98,SE,125,1.0,0.0,75,0.00,,,0.00,,2013-04-24 08:21:00,
2013-04-24 03:33:00,63.0,55.0,29.98,SE,124,2.0,5.0,75,0.00,,,0.00,,2013-04-24 08:33:00,
2013-04-24 03:42:00,63.0,55.0,29.98,SE,124,2.0,5.0,75,0.00,,,0.00,,2013-04-24 08:42:00,
2013-04-24 03:52:00,63.0,55.0,29.98,SE,136,5.0,5.0,76,0.00,,,0.00,,2013-04-24 08:52:00,
2013-04-24 04:01:00,63.0,55.0,29.97,South,173,5.0,8.0,76,0.00,,,0.00,,2013-04-24 09:01:00,
2013-04-24 04:11:00,63.0,55.0,29.97,South,173,5.0,8.0,76,0.00,,,0.00,,2013-04-24 09:11:00,
2013-04-24 04:21:00,64.0,56.0,29.98,SSW,200,6.0,8.0,75,0.00,,,0.00,,2013-04-24 09:21:00,
2013-04-24 04:33:00,65.0,57.0,29.99,SSE,156,5.0,0.0,75,0.00,,,0.00,,2013-04-24 09:33:00,
2013-04-24 04:42:00,65.0,57.0,29.99,SSE,156,5.0,0.0,75,0.00,,,0.00,,2013-04-24 09:42:00,
2013-04-24 04:53:00,65.0,57.0,29.98,South,190,5.0,5.0,75,0.00,,,0.00,,2013-04-24 09:53:00,
2013-04-24 05:02:00,64.0,56.0,29.98,ESE,103,6.0,6.0,76,0.00,,,0.00,,2013-04-24 10:02:00,
2013-04-24 05:12:00,64.0,56.0,29.98,ESE,103,6.0,6.0,76,0.00,,,0.00,,2013-04-24 10:12:00,
2013-04-24 05:22:00,64.0,57.0,29.98,South,173,7.0,7.0,78,0.00,,,0.00,,2013-04-24 10:22:00,
2013-04-24 05:32:00,64.0,57.0,29.97,East,101,5.0,7.0,79,0.00,,,0.00,,2013-04-24 10:32:00,
2013-04-24 05:42:00,64.0,57.0,29.97,East,101,5.0,7.0,79,0.00,,,0.00,,2013-04-24 10:42:00,
2013-04-24 05:53:00,64.0,58.0,29.97,SSW,205,5.0,7.0,80,0.00,,,0.00,,2013-04-24 10:53:00,
2013-04-24 06:02:00,64.0,58.0,29.98,South,177,5.0,10.0,80,0.00,,,0.00,,2013-04-24 11:02:00,
2013-04-24 06:11:00,64.0,58.0,29.97,SW,231,3.0,5.0,81,0.00,,,0.00,,2013-04-24 11:11:00,
2013-04-24 06:21:00,64.0,58.0,29.97,SW,231,3.0,5.0,81,0.00,,,0.00,,2013-04-24 11:21:00,
2013-04-24 06:32:00,63.0,57.0,29.96,SE,136,7.0,7.0,82,0.00,,,0.00,,2013-04-24 11:32:00,
2013-04-24 06:42:00,63.0,57.0,29.96,SE,136,7.0,7.0,82,0.00,,,0.00,,2013-04-24 11:42:00,
2013-04-24 06:52:00,63.0,57.0,29.97,SSW,193,6.0,6.0,82,0.00,,,0.00,,2013-04-24 11:52:00,
2013-04-24 07:02:00,64.0,58.0,29.96,South,183,4.0,7.0,82,0.00,,,0.00,,2013-04-24 12:02:00,
2013-04-24 07:11:00,64.0,58.0,29.97,SSE,163,7.0,7.0,81,0.00,,,0.00,,2013-04-24 12:11:00,
2013-04-24 07:22:00,64.0,58.0,29.97,SSE,163,7.0,7.0,81,0.00,,,0.00,,2013-04-24 12:22:00,
2013-04-24 07:32:00,65.0,59.0,29.98,SW,226,7.0,8.0,80,0.00,,,0.00,,2013-04-24 12:32:00,
2013-04-24 07:42:00,65.0,59.0,29.98,SW,226,7.0,8.0,80,0.00,,,0.00,,2013-04-24 12:42:00,
2013-04-24 07:52:00,65.0,58.0,29.98,SSW,201,8.0,8.0,79,0.00,,,0.00,,2013-04-24 12:52:00,
2013-04-24 08:01:00,65.0,58.0,29.98,South,170,8.0,8.0,79,0.00,,,0.00,,2013-04-24 13:01:00,
2013-04-24 08:12:00,65.0,58.0,29.98,South,170,8.0,8.0,79,0.00,,,0.00,,2013-04-24 13:12:00,
2013-04-24 08:22:00,66.0,59.0,29.97,South,174,5.0,9.0,77,0.00,,,0.00,,2013-04-24 13:22:00,
2013-04-24 08:31:00,66.0,59.0,29.96,South,183,9.0,9.0,78,0.00,,,0.00,,2013-04-24 13:31:00,
2013-04-24 08:41:00,66.0,59.0,29.96,South,183,9.0,9.0,78,0.00,,,0.00,,2013-04-24 13:41:00,
2013-04-24 08:52:00,66.0,59.0,29.99,South,181,10.0,16.0,78,0.00,,,0.00,,2013-04-24 13:52:00,
2013-04-24 09:01:00,66.0,59.0,30.01,SSW,198,7.0,7.0,78,0.00,,,0.00,,2013-04-24 14:01:00,
2013-04-24 09:11:00,65.0,58.0,30.01,SSW,203,8.0,8.0,78,0.00,,,0.00,,2013-04-24 14:11:00,
2013-04-24 09:21:00,65.0,58.0,30.01,SSW,203,8.0,8.0,78,0.00,,,0.00,,2013-04-24 14:21:00,
2013-04-24 09:32:00,65.0,58.0,30.01,South,176,6.0,6.0,78,0.00,,,0.00,,2013-04-24 14:32:00,
2013-04-24 09:41:00,65.0,58.0,30.01,South,176,6.0,6.0,78,0.00,,,0.00,,2013-04-24 14:41:00,
2013-04-24 09:51:00,65.0,58.0,30.02,SW,229,9.0,9.0,79,0.00,,,0.00,,2013-04-24 14:51:00,
2013-04-24 10:01:00,65.0,59.0,30.03,SSW,195,5.0,7.0,80,0.00,,,0.00,,2013-04-24 15:01:00,
2013-04-24 10:11:00,65.0,59.0,30.03,SSW,195,5.0,7.0,80,0.00,,,0.00,,2013-04-24 15:11:00,
2013-04-24 10:21:00,64.0,59.0,30.03,South,183,2.0,5.0,84,0.00,,,0.00,,2013-04-24 15:21:00,
2013-04-24 10:33:00,64.0,60.0,30.05,SW,236,3.0,7.0,87,0.00,,,0.00,,2013-04-24 15:33:00,
2013-04-24 10:42:00,64.0,60.0,30.05,SW,236,3.0,7.0,87,0.00,,,0.00,,2013-04-24 15:42:00,
2013-04-24 10:53:00,63.0,60.0,30.06,SSE,160,4.0,4.0,90,0.00,,,0.00,,2013-04-24 15:53:00,
2013-04-24 11:03:00,63.0,60.0,30.08,SW,222,0.0,0.0,91,0.00,,,0.00,,2013-04-24 16:03:00,
2013-04-24 11:12:00,63.0,60.0,30.08,SW,222,0.0,0.0,91,0.00,,,0.00,,2013-04-24 16:12:00,
2013-04-24 11:23:00,62.0,60.0,30.07,West,262,0.0,0.0,92,0.18,,,0.00,,2013-04-24 16:23:00,
2013-04-24 11:32:00,61.0,59.0,30.06,South,174,0.0,0.0,93,0.18,,,0.00,,2013-04-24 16:32:00,
2013-04-24 11:42:00,61.0,59.0,30.06,WSW,243,0.0,0.0,94,0.18,,,0.00,,2013-04-24 16:42:00,
2013-04-24 11:52:00,61.0,59.0,30.06,WSW,243,0.0,0.0,94,0.18,,,0.00,,2013-04-24 16:52:00,
2013-04-24 12:02:00,61.0,59.0,30.07,WSW,243,0.0,0.0,94,0.18,,,0.00,,2013-04-24 17:02:00,
2013-04-24 12:12:00,61.0,59.0,30.07,WSW,243,0.0,0.0,94,0.18,,,0.00,,2013-04-24 17:12:00,
2013-04-24 12:22:00,61.0,60.0,30.07,South,181,0.0,0.0,95,0.13,,,0.00,,2013-04-24 17:22:00,
2013-04-24 12:32:00,61.0,60.0,30.07,WNW,294,5.0,5.0,95,0.13,,,0.00,,2013-04-24 17:32:00,
2013-04-24 12:42:00,61.0,60.0,30.07,WNW,294,5.0,5.0,95,0.13,,,0.00,,2013-04-24 17:42:00,
2013-04-24 12:52:00,60.0,59.0,30.08,SSW,194,2.0,0.0,96,0.13,,,0.00,,2013-04-24 17:52:00,
2013-04-24 13:02:00,59.0,58.0,30.10,NNW,340,8.0,8.0,95,0.13,,,0.00,,2013-04-24 18:02:00,
2013-04-24 13:12:00,59.0,58.0,30.10,NNW,340,8.0,8.0,95,0.13,,,0.00,,2013-04-24 18:12:00,
2013-04-24 13:21:00,57.0,56.0,30.10,NW,304,6.0,7.0,95,0.13,,,0.00,,2013-04-24 18:21:00,
2013-04-24 13:33:00,54.0,53.0,30.11,NNE,20,7.0,7.0,95,0.01,,,0.00,,2013-04-24 18:33:00,
2013-04-24 13:42:00,54.0,53.0,30.11,NNE,20,7.0,7.0,95,0.01,,,0.00,,2013-04-24 18:42:00,
2013-04-24 13:52:00,52.0,51.0,30.11,North,357,5.0,5.0,95,0.01,,,0.00,,2013-04-24 18:52:00,
2013-04-24 14:02:00,52.0,51.0,30.10,NW,309,4.0,5.0,95,0.01,,,0.00,,2013-04-24 19:02:00,
2013-04-24 14:11:00,52.0,51.0,30.10,NW,309,4.0,5.0,95,0.01,,,0.00,,2013-04-24 19:11:00,
2013-04-24 14:21:00,52.0,51.0,30.10,SW,233,8.0,8.0,95,0.01,,,0.00,,2013-04-24 19:21:00,
2013-04-24 14:31:00,52.0,51.0,30.11,WNW,300,4.0,0.0,95,0.00,,,0.00,,2013-04-24 19:31:00,
2013-04-24 14:42:00,52.0,51.0,30.11,WNW,300,4.0,0.0,95,0.00,,,0.00,,2013-04-24 19:42:00,
2013-04-24 14:52:00,53.0,52.0,30.11,SW,217,0.0,0.0,95,0.00,,,0.00,,2013-04-24 19:52:00,
2013-04-24 15:02:00,53.0,52.0,30.11,NW,316,1.0,0.0,95,0.00,,,0.00,,2013-04-24 20:02:00,
2013-04-24 15:11:00,53.0,52.0,30.11,NW,316,1.0,0.0,95,0.00,,,0.00,,2013-04-24 20:11:00,
2013-04-24 15:22:00,53.0,51.0,30.12,West,280,0.0,0.0,94,0.00,,,0.00,,2013-04-24 20:22:00,
2013-04-24 15:32:00,53.0,51.0,30.13,WNW,302,4.0,4.0,94,0.00,,,0.00,,2013-04-24 20:32:00,
2013-04-24 15:42:00,53.0,51.0,30.13,WNW,302,4.0,4.0,94,0.00,,,0.00,,2013-04-24 20:42:00,
2013-04-24 15:52:00,53.0,51.0,30.13,NNW,345,4.0,4.0,94,0.00,,,0.00,,2013-04-24 20:52:00,
2013-04-24 16:02:00,53.0,51.0,30.13,NNW,332,0.0,5.0,94,0.00,,,0.00,,2013-04-24 21:02:00,
2013-04-24 16:11:00,53.0,51.0,30.13,NNW,332,0.0,5.0,94,0.00,,,0.00,,2013-04-24 21:11:00,
2013-04-24 16:21:00,53.0,52.0,30.13,WNW,295,6.0,6.0,95,0.02,,,0.00,,2013-04-24 21:21:00,
2013-04-24 16:33:00,53.0,52.0,30.13,NNE,24,5.0,7.0,95,0.02,,,0.00,,2013-04-24 21:33:00,
2013-04-24 16:42:00,53.0,52.0,30.13,NNE,24,5.0,7.0,95,0.02,,,0.00,,2013-04-24 21:42:00,
2013-04-24 16:52:00,53.0,52.0,30.14,NNW,339,6.0,6.0,95,0.02,,,0.00,,2013-04-24 21:52:00,
2013-04-24 17:03:00,53.0,52.0,30.14,WNW,298,1.0,7.0,95,0.02,,,0.00,,2013-04-24 22:03:00,
2013-04-24 17:12:00,53.0,52.0,30.14,WNW,298,1.0,7.0,95,0.02,,,0.00,,2013-04-24 22:12:00,
2013-04-24 17:22:00,53.0,51.0,30.14,WNW,284,4.0,5.0,94,0.00,,,0.00,,2013-04-24 22:22:00,
2013-04-24 17:33:00,54.0,52.0,30.14,NNW,336,7.0,7.0,93,0.00,,,0.00,,2013-04-24 22:33:00,
2013-04-24 17:42:00,54.0,52.0,30.14,NNW,336,7.0,7.0,93,0.00,,,0.00,,2013-04-24 22:42:00,
2013-04-24 17:52:00,54.0,51.0,30.15,NNE,20,6.0,0.0,91,0.00,,,0.00,,2013-04-24 22:52:00,
2013-04-24 18:02:00,54.0,51.0,30.15,NW,319,7.0,7.0,89,0.00,,,0.00,,2013-04-24 23:02:00,
2013-04-24 18:12:00,54.0,51.0,30.15,NW,319,7.0,7.0,89,0.00,,,0.00,,2013-04-24 23:12:00,
2013-04-24 18:21:00,53.0,50.0,30.16,NNW,339,4.0,7.0,89,0.00,,,0.00,,2013-04-24 23:21:00,
2013-04-24 18:32:00,53.0,50.0,30.16,NNE,23,4.0,4.0,88,0.00,,,0.00,,2013-04-24 23:32:00,
2013-04-24 18:42:00,53.0,50.0,30.16,NNE,23,4.0,4.0,88,0.00,,,0.00,,2013-04-24 23:42:00,
2013-04-24 18:52:00,52.0,48.0,30.17,NNE,27,4.0,0.0,87,0.00,,,0.00,,2013-04-24 23:52:00,
2013-04-24 19:01:00,52.0,48.0,30.17,North,11,3.0,5.0,86,0.00,,,0.00,,2013-04-25 00:01:00,
2013-04-24 19:12:00,52.0,48.0,30.17,North,11,3.0,5.0,86,0.00,,,0.00,,2013-04-25 00:12:00,
2013-04-24 19:22:00,52.0,48.0,30.17,North,359,4.0,0.0,86,0.00,,,0.00,,2013-04-25 00:22:00,
2013-04-24 19:32:00,52.0,48.0,30.18,NNW,346,2.0,3.0,86,0.00,,,0.00,,2013-04-25 00:32:00,
2013-04-24 19:41:00,52.0,48.0,30.18,NNW,346,2.0,3.0,86,0.00,,,0.00,,2013-04-25 00:41:00,
2013-04-24 19:52:00,52.0,48.0,30.18,NW,323,5.0,7.0,85,0.00,,,0.00,,2013-04-25 00:52:00,
2013-04-24 20:01:00,51.0,46.0,30.19,NNW,339,7.0,9.0,84,0.00,,,0.00,,2013-04-25 01:01:00,
2013-04-24 20:11:00,51.0,46.0,30.19,NNW,339,7.0,9.0,84,0.00,,,0.00,,2013-04-25 01:11:00,
2013-04-24 20:22:00,50.0,46.0,30.19,North,350,3.0,3.0,85,0.00,,,0.00,,2013-04-25 01:22:00,
2013-04-24 20:32:00,50.0,46.0,30.19,NNW,336,2.0,0.0,85,0.00,,,0.00,,2013-04-25 01:32:00,
2013-04-24 20:42:00,50.0,46.0,30.19,NNW,336,2.0,0.0,85,0.00,,,0.00,,2013-04-25 01:42:00,
2013-04-24 20:52:00,48.0,44.0,30.20,NNW,335,3.0,0.0,86,0.00,,,0.00,,2013-04-25 01:52:00,
2013-04-24 21:02:00,49.0,45.0,30.20,NNE,30,1.0,3.0,87,0.00,,,0.00,,2013-04-25 02:02:00,
2013-04-24 21:11:00,49.0,45.0,30.20,NNE,30,1.0,3.0,87,0.00,,,0.00,,2013-04-25 02:11:00,
2013-04-24 21:22:00,49.0,45.0,30.21,North,0,3.0,4.0,87,0.00,,,0.00,,2013-04-25 02:22:00,
2013-04-24 21:32:00,49.0,46.0,30.21,North,349,2.0,6.0,88,0.00,,,0.00,,2013-04-25 02:32:00,
2013-04-24 21:42:00,49.0,46.0,30.21,North,349,2.0,6.0,88,0.00,,,0.00,,2013-04-25 02:42:00,
2013-04-24 21:51:00,49.0,46.0,30.21,North,349,2.0,6.0,88,0.00,,,0.00,,2013-04-25 02:51:00,
2013-04-24 22:02:00,49.0,45.0,30.22,NNE,30,2.0,0.0,86,0.00,,,0.00,,2013-04-25 03:02:00,
2013-04-24 22:11:00,49.0,45.0,30.22,North,359,4.0,4.0,86,0.00,,,0.00,,2013-04-25 03:11:00,
2013-04-24 22:22:00,49.0,45.0,30.22,North,359,4.0,4.0,86,0.00,,,0.00,,2013-04-25 03:22:00,
2013-04-24 22:33:00,49.0,45.0,30.23,North,8,5.0,8.0,85,0.00,,,0.00,,2013-04-25 03:33:00,
2013-04-24 22:42:00,49.0,45.0,30.23,North,8,5.0,8.0,85,0.00,,,0.00,,2013-04-25 03:42:00,
2013-04-24 22:52:00,48.0,43.0,30.23,ENE,58,6.0,6.0,84,0.00,,,0.00,,2013-04-25 03:52:00,
2013-04-24 23:03:00,48.0,43.0,30.24,North,359,5.0,5.0,83,0.00,,,0.00,,2013-04-25 04:03:00,
2013-04-24 23:12:00,48.0,43.0,30.25,NNE,14,5.0,5.0,83,0.00,,,0.00,,2013-04-25 04:12:00,
2013-04-24 23:22:00,48.0,43.0,30.25,NNE,14,5.0,5.0,83,0.00,,,0.00,,2013-04-25 04:22:00,
2013-04-24 23:32:00,48.0,43.0,30.25,NNE,31,4.0,0.0,82,0.00,,,0.00,,2013-04-25 04:32:00,
2013-04-24 23:43:00,48.0,43.0,30.25,NNE,31,4.0,0.0,82,0.00,,,0.00,,2013-04-25 04:43:00,
2013-04-24 23:52:00,48.0,43.0,30.25,North,11,3.0,6.0,82,0.00,,,0.00,,2013-04-25 04:52:00,